Weather in Novyye Ivaytenki

Russia / Bryansk Oblast     52°46′49″N   33°04′15″E
temp.,
°C
wind,
m/s
gust,
m/s
humid.,
%
clouds,
%
prec.,
mm/h
press.,
hPa
HPBL,
m
10 may, mon
mon1000:00+4nw47774 0.0 1025103
03:00+3nnw35795 0.0 102667
06:00+3n33780 0.0 102749
09:00+9n34560 0.0 1028389
12:00+13nne45430 0.0 10271385
15:00+14nne46420 0.0 10261547
18:00+13nne46550 0.0 1025765
21:00+8nne46700 0.0 102674
11 may, tue
tue1100:00+6ne36780 0.0 102685
03:00+4nne410764 0.0 1026165
06:00+5nne512755 0.0 1025248
09:00+11ne69695 0.0 1024408
12:00+16ne68645 0.0 1023707
15:00+19ne79625 0.0 10211028
18:00+18ne610726 0.1 10211044
21:00+12ese5109589 0.6 1023430
12 may, wed
wed1200:00+8e411952 0.0 1024330
03:00+6e511940 0.0 1024314
06:00+5e411945 0.0 1024310
09:00+11e5774100 0.0 1023567
12:00+14e6859100 0.0 10211590
15:00+13e5664100 0.2 10191402
18:00+11e3579100 0.3 1017441
21:00+8e499196 0.3 1016218
13 may, thu
thu1300:00+8e51193100 0.1 1015574
03:00+6ese389849 0.2 1015227
06:00+7se599595 0.2 1015434
09:00+9se6886100 0.2 1016621
12:00+14sse6960100 0.0 10151547
15:00+17sse79547 0.0 10142032
18:00+16sse586799 0.1 1014854
21:00+11ese369098 0.1 101587
14 may, fri
fri1400:00+12e4119299 0.0 1014229
03:00+12e5149373 0.3 1012332
06:00+12ese61592100 0.5 1011420
09:00+15ese71289100 4.0 1010637
12:00+17se61187100 1.1 10091097
15:00+19s8117468 2.3 10091399
18:00+18ssw5107973 1.1 10091017
21:00+14ssw3390100 1.1 101039